Location: Newark
(48.6461°N, 4.3644°W)
Time: 21:02:09
(UTC+00:00)

A-11 Canister half - Pass Details

Date: 28 January 2020
Orbit: 1517 x 1683 km, 47.2° (Epoch: 26 February)

Event Time Altitude Azimuth Distance (km) Brightness Sun altitude
Exits shadow 05:56:19 25° 258° (WSW) 2,687 9.7 -19.2°
Maximum altitude 05:59:50 32° 222° (SW) 2,368 9.7 -18.6°
Drops below altitude 10° 06:07:44 10° 164° (SSE) 3,709 11.3 -17.3°
Sets 06:11:13 0° 155° (SSE) 4,709 12.1 -16.7°
